Regional Weather Roundup
Issued by NWS Wakefield, VA

Home | Current Version | Previous Version | Text Only | Print | Product List | Glossary On
Versions: 1 2 3 4 5 6 7 8 9 10 11 12 13 14 15 16 17 18 19 20 21 22 23 24 25 26 27 28 29 30 31 32 33 34 35 36 37 38 39 40 41 42 43 44 45 46 47 48 49 50
000
ASUS41 KAKQ 081515
RWRAKQ

REGIONAL WEATHER ROUNDUP
NATIONAL WEATHER SERVICE WAKEFIELD VA
1000 AM EST MON FEB 08 2016

Note: "fair" indicates few or no clouds below 12,000 feet with no
significant weather and/or obstructions to visibility. * = Denotes
station may not report precipitation (e.g., rain,snow,etc.),
thunder or fog.

VAZ042-051-052>054-056-081600-
NORTHERN VIRGINIA

CITY           SKY/WX    TMP DP  RH WIND       PRES   REMARKS
WASH NATIONAL  PTSUNNY   42  26  53 NE10      29.80F
DULLES         PTSUNNY   39  20  46 E10       29.78F
FORT BELVOIR   FAIR      42  22  44 VRB6      29.79F
QUANTICO       FAIR      42  23  46 NE10      29.81F
FREDERICKSBRG* FAIR      42  24  50 E7        29.79F
STAFFORD*      FAIR      42  22  44 E9        29.82F
WARRENTON      FAIR      42  27  55 NE5       29.79S
CULPEPER*      FAIR      38  24  57 CALM      29.81S
MANASSAS*      SUNNY     43  23  45 E5        29.79F
LEESBURG*      FAIR      41  28  60 NE5       29.80S
WINCHESTER     FAIR      37  28  70 CALM      29.77F
FRONT ROYAL*   FAIR      34  28  80 CALM      29.77F
LURAY*         FAIR      32  28  86 CALM      29.76F
$$

VAZ048-049-060>072-079>083-081600-
CENTRAL AND SOUTH CENTRAL VIRGINIA

CITY           SKY/WX    TMP DP  RH WIND       PRES   REMARKS
RICHMOND       FAIR      42  24  49 NE6       29.80R
CHESTERFIELD*  FAIR      43  16  33 E5        29.82R
PETERSBURG*    FAIR      43  19  38 CALM      29.82R
HANOVER        FAIR      42  22  44 VRB3      29.81R
TAPPAHANNOCK*  FAIR      42  24  50 N7        29.79F
QUINTON*       FAIR      41  25  51 NE5       29.79R
CHARLOTTSVILLE FAIR      40  26  57 CALM      29.78F
GORDONSVILLE*  FAIR      40  23  50 NE5       29.78F
ORANGE*        FAIR      41  23  48 NW5       29.81S
LOUISA*        FAIR      41  25  52 N3        29.78S
BUMPASS*       FAIR      42  22  45 CALM      29.79R
FARMVILLE*     FAIR      44  24  46 CALM      29.79F
CREWE*         FAIR      42  22  44 CALM      29.80S
FORT PICKETT*  FAIR      42  21  43 CALM      29.80S
CHASE CITY*    FAIR      42  21  43 SE6       29.80F
CLARKSVILLE*   FAIR      43  25  49 E5        29.81F
SOUTH HILL*    FAIR      41  23  48 CALM      29.87F
LAWRENCEVILLE* FAIR      42  23  45 CALM      29.81S
EMPORIA*       FAIR      39  23  52 CALM      29.83S
$$

VAZ088>098-081600-
SOUTHEAST VIRGINIA

CITY           SKY/WX    TMP DP  RH WIND       PRES   REMARKS
NORFOLK        FAIR      42  28  57 N13       29.77S
VIRGINIA BEACH FAIR      46  30  53 N15       29.77S
NORFOLK NAVAL  FAIR      44  29  55 N12       29.79S
WEST POINT*    FAIR      42  24  49 N7        29.80S
SALUDA*        FAIR      41  28  60 N7        29.78F
NEWPORT NEWS   FAIR      43  28  55 N9        29.79S
LANGLEY AFB    MOSUNNY   42  29  58 N12       29.77S
FORT EUSTIS    FAIR      43  24  46 N7        29.77S
WILLIAMSBURG*  FAIR      46  30  53 CALM      29.80R
HR EXEC AP*    FAIR      45  28  53 N6        29.80S
FRANKLIN*      FAIR      41  26  55 N6        29.81R
US460-WAKEFLD  FAIR      43  24  47 VRB5      29.81R
$$

VAZ020-022-025-037-045-081600-
WEST CENTRAL AND SOUTHWEST VIRGINIA

CITY           SKY/WX    TMP DP  RH WIND       PRES   REMARKS
STAUNTON*      FAIR      36  30  79 CALM      29.77F
WAYNESBORO*    FAIR      38  24  56 E8        29.73F
HOT SPRINGS VA CLOUDY    37  21  52 S6        29.64S
LYNCHBURG      PTSUNNY   39  25  57 E9        29.77F
DANVILLE       FAIR      39  27  62 S3        29.78F
SOUTH BOSTON*  FAIR      41  26  56 E3        29.79F
MARTINSVILLE   PTSUNNY   34  26  70 CALM      29.80R
ROANOKE        FAIR      35  27  72 CALM      29.77R
BLACKSBURG     CLOUDY    35  28  77 CALM      29.75S
DUBLIN*        PTSUNNY   34  29  83 CALM      29.74S
MARION*        CLOUDY    35  24  63 CALM      29.72S
HILLSVILLE*    CLOUDY    34  24  67 CALM      29.70S
RICHLANDS*     CLOUDY    37  22  56 SW8       29.67S
WISE*          CLOUDY    36  25  64 S6        29.67F
ABINGDON*      CLOUDY    38  25  60 W5        29.70F
$$

MDZ021>025-VAZ099-100-081600-
SOUTHERN MARYLAND AND THE DELMARVA PENINSULA

CITY           SKY/WX    TMP DP  RH WIND       PRES   REMARKS
PATUXENT RIVER CLOUDY    40  26  57 N9        29.78F
BAY BRIDGE APT   N/A     37  27  65 CALM      29.80F
LEONARDTOWN    PTSUNNY   39  23  52 NE7       29.79F
DOVER          CLOUDY    40  31  70 N13       29.77S
GEORGETOWN     CLOUDY    39  29  67 N10       29.77S
EASTON         PTSUNNY   39  27  60 N9        29.82F
CAMBRIDGE      CLOUDY    37  27  65 N8        29.78S
SALISBURY      CLOUDY    40  29  64 N10       29.75F
OCEAN CITY     CLOUDY    40  35  83 N12       29.76S
WALLOPS ISLAND CLOUDY    41  29  62 N14       29.75F
ACCOMACK*      CLOUDY    39  30  70 NW10      29.76S
$$

NCZ012>017-030>032-081600-
NORTH CENTRAL AND EASTERN NORTH CAROLINA

CITY           SKY/WX    TMP DP  RH WIND       PRES   REMARKS
ROANOKE RAPIDS FAIR      43  25  49 CALM      29.82F
RALEIGH        PTSUNNY   45  26  47 SE8       29.82F
ELIZABETH CITY SUNNY     43  30  60 NW12      29.79S
AHOSKIE*       SUNNY     41  25  53 NE5       29.82S
EDENTON*       SUNNY     43  30  58 NW9       29.81S
CURRITUCK*     SUNNY     42  31  65 N9G16     29.79R
KILL DEVIL HLS SUNNY     43  31  63 NW6       29.76S
MANTEO         SUNNY     41  31  67 NW10G18   29.79R
CAPE HATTERAS  SUNNY     43  31  62 NW9       29.80R
TARBORO*       FAIR      43  27  54 NW6       29.85S
GOLDSBORO      SUNNY     45  27  49 NW2       29.84S
WASHINGTON     SUNNY     42  27  54 CALM      29.83R
GREENVILLE     SUNNY     43  27  52 NW3       29.87R
NEW BERN       SUNNY     44  28  53 NW7       29.86R
WILMINGTON     SUNNY     46  30  53 W3        29.88S
$$

VAZ048-081600-
ELSEWHERE

CITY           SKY/WX    TMP DP  RH WIND       PRES   REMARKS
HARRISBURG PA  CLOUDY    38  24  57 E9        29.79F
BALTIMORE      PTSUNNY   40  25  55 NE10G23   29.78F
ANNAPOLIS        N/A    N/A N/A N/A MISG      29.79F
ANDREWS AFB    FAIR      41  25  54 NE10G20   29.78F
PHILADELPHIA   CLOUDY    41  27  57 NE9       29.80R
HENDERSON NC   SUNNY     46  24  43 NE5       29.81F
GREENSBORO     CLOUDY    44  26  49 SW7       29.77S
ROCKY MOUNT    SUNNY     44  26  49 NW6       29.85S
$$

VAZ100-081600-
MARINE

STATION/POSITION TIME  TEMP    WIND        PRES    WAVE   SWELL
                       AIR SEA DIR/SP/G            HT/PER HT/PER
                 (UTC) (F)     (DEG/KT/KT) (MB)    (FT/S) (FT/S)
BRANDYWINE LGT   1400   38      40/ 15/ 21 1007.9R
CAPE MAY NJ      1400   40 42   10/  4/  6 1007.5R
LEWES DE         1400   39 41   20/ 15/ 18 1007.9R
15NM E FENWICK I 1450   40 45              1006.1R  15/11
OCEAN-CITY-INLET 1400   39 41   10/ 12/ 14 1006.5R
WACHAPREAGUE VA  1400   39 42  330/  7/ 15 1007.7R
THOMAS POINT MD  1500   38 38   20/ 13/ 14   N/A
GOOSES REEF MD   1500   39 39   10/ 12/ 14 1009.6F   2/ 3
COVE POINT MD    1400   38      10/ 11/ 14 1009.6F
SOLOMONS ISLAND  1400   39 41  350/  5/  7   N/A
BISHOPS HEAD MD  1406   39 38  340/  8/ 12 1007.5S
POTOMAC MD       1500   39 40   20/ 12/ 16 1007.3F   1/ 2
CAMBRIDGE MD     1400   38 40  340/ 11/ 13 1008.1R
LEWISETTA VA     1400   38 40  340/  8/ 10 1008.9R
RAPPAHANNOCK LGT 1400          340/ 18/ 20 1008.2S
STINGRAY PT      1500   40 41   10/ 14/ 16 1008.0F   1/ 3
YORK RVR RNG VA  1400   38     350/ 16/ 18 1007.5F
YORKTOWN VA      1400   39 42  330/ 10/ 12 1008.5S
JAMESTOWN VA     1500   41 43  350/  6/ 10   N/A     0
DOMINION TERM VA 1400   39     350/ 11/ 13 1008.4F
KIPTOPEKE VA     1400      42  350/ 14/ 18   N/A
CHES BAY BRIDGE  1400   39 43  320/ 18/ 20 1007.6F
CAPE HENRY VA    1400   39     320/ 17/ 19   N/A
CHESAPEAKE LGHT  1400   41     340/ 23/ 24 1008.0R
WILLOUBY STN VA  1400   39     340/ 11/ 14 1027.5S
CAPE HENRY BUOY  1428      46                N/A     9/12   7/12
1ST LANDING BUOY 1500      43                N/A     5/ 7
CAPE CHARLES BUO 1426      44                N/A     9/11  10/11
OFFSHORE WE BUOY 1421      47                N/A    10/13  10/13
64NM E OF VA BCH 1450   45 53  340/ 25/ 29 1005.0R  17/13  15/13
DUCK PIER NC     1400   39 51  320/ 17/ 21 1007.2S
44100 DUCK FRF   1424      47                N/A    12/13   8/13
44056 DUCK FRF   1411      44                N/A    10/12   8/12
OREGON INLET NC  1400   41 45  310/ 14/ 19 1007.7R
HATTERAS NC      1400   41 49  310/ 22/ 25 1008.3R
DIAMOND SHLS NC  1450   44 58  320/ 19/ 23 1008.9R  16/16  15/16
$$




USA.gov is the U.S. government's official web portal to all federal, state and local government web resources and services.